Volver al catálogo

STARLINK-31015

ActivoComunicacionesVLEO
NORAD 58521·PAYLOAD·🇺🇸 United States

Lanzado Dec 7, 2023 desde Cape Canaveral Space Force Station

Loading…

Próximos Pases (próximas 24 horas)

TLE

ActualizadoSource: CelesTrak SupGP

Época: Sep 14, 2026, 22:37 UTC

1 58521C 23191P   26257.94284722 -.00010914  00000+0 -39543-3 0  2577
2 58521  42.9997 114.2860 0001276 274.4348 289.7846 15.27574418    12

Sigue STARLINK-31015 en tiempo real con AllMySat

Download on the App Store